Tracking 18852 objects as of 23-Nov-2017
HD Live streaming from Space Station
objects crossing your sky now

ORBCOMM FM 34

Track ORBCOMM FM 34 now!
10-day predictions
ORBCOMM FM 34 is classified as:


NORAD ID: 25986
Int'l Code: 1999-065G
Perigee: 788.5 km
Apogee: 792.3 km
Inclination: 45.0 °
Period: 100.5 minutes
Semi major axis: 7161 km
RCS: 0.5409 m2 (medium)
Launch date: December 4, 1999
Source: ORBCOMM (ORB)
Launch site: AIR FORCE EASTERN TEST RANGE (AFETR)
aabbcc
Your satellite tracking list
Your tracking list is empty




NASA's NSSDC Master Catalog

Two Line Element Set (TLE):
1 25986U 99065G   17326.52222357 +.00000073 +00000-0 +78228-4 0  9997
2 25986 045.0392 137.8023 0002662 257.9978 102.0570 14.32545835938401
Source of the keplerian elements: AFSPC